Flag for United Kingdom

Past Weather in Worthing, England, United Kingdom — Yesterday and Last 2 Weeks

Now
52 °F

Passing clouds.


Feels Like: 46 °F
Forecast: 63 / 50 °F
Wind: 17 mph from Northwest

Location: London / Gatwick Airport
Current Time: Sep 27, 2020 at 6:08:29 am
Latest Report: Sep 27, 2020 at 5:20 am
Visibility: N/A
Pressure29.83 "Hg
Humidity: 67%
Dew Point: 41 °F
Location of WorthingLocation

Past Weather in Worthing — Graph

°F

Worthing Temperature Yesterday

Maximum temperature yesterday: 55 °F (at 1:50 pm)
Minimum temperature yesterday: 43 °F (at 7:20 am)
Average temperature yesterday: 50 °F

High & Low Weather Summary for the Past Weeks

 TemperatureHumidityPressure
High84 °F (Sep 15, 3:20 pm)100% (Sep 13, 3:20 am)30.36 "Hg (Sep 13, 3:20 am)
Low43 °F (Sep 24, 11:20 pm)29% (Sep 21, 4:20 pm)29.33 "Hg (Sep 24, 6:50 pm)
Average61 °F73%29.97 "Hg
* Reported Sep 12 4:20 am — Sep 27 4:50 am, Worthing. Weather by CustomWeather, © 2020

Note: Actual official high and low records may vary slightly from our data, if they occured in-between our weather recording intervals... More about our weather records

Worthing Weather History for the Previous 24 Hours

Scroll right to see more
 ConditionsComfort  
Time TempWeatherWind HumidityBarometerVisibility
4:50 am
Sun, Sep 27
52 °FPassing clouds.20 mph67%29.86 "HgN/A
4:20 am50 °FPassing clouds.18 mph71%29.83 "HgN/A
3:20 am52 °FPassing clouds.18 mph67%29.86 "HgN/A
2:50 am52 °FPassing clouds.18 mph67%29.86 "HgN/A
2:20 am52 °FPassing clouds.17 mph67%29.86 "HgN/A
1:50 am52 °FPassing clouds.17 mph67%29.86 "HgN/A
1:20 am52 °FPassing clouds.16 mph72%29.86 "HgN/A
12:50 am52 °FPassing clouds.18 mph72%29.86 "HgN/A
12:20 am52 °FPassing clouds.17 mph72%29.89 "HgN/A
11:50 pm
Sat, Sep 26
52 °FPassing clouds.16 mph72%29.89 "HgN/A
11:20 pm52 °FPartly cloudy.15 mph72%29.89 "HgN/A
10:50 pm52 °FPassing clouds.16 mph72%29.89 "HgN/A
10:20 pm52 °FPassing clouds.17 mph72%29.89 "HgN/A
9:50 pm52 °FPassing clouds.16 mph72%29.89 "HgN/A
9:20 pm52 °FPassing clouds.16 mph72%29.89 "HgN/A
8:50 pm52 °FPartly cloudy.15 mph77%29.89 "HgN/A
8:20 pm52 °FPassing clouds.16 mph77%29.89 "HgN/A
7:50 pm52 °FPassing clouds.15 mph77%29.89 "HgN/A
7:20 pm52 °FPassing clouds.17 mph77%29.89 "HgN/A
6:50 pm52 °FPassing clouds.20 mph72%29.86 "HgN/A
6:20 pm52 °FPartly sunny.15 mph72%29.86 "HgN/A
5:50 pm52 °FPartly sunny.21 mph72%29.86 "HgN/A
5:20 pm54 °FPartly sunny.17 mph63%29.83 "HgN/A
4:50 pm54 °FLight rain. Partly sunny.15 mph67%29.83 "HgN/A
4:20 pm54 °FPartly sunny.15 mph58%29.86 "HgN/A
3:50 pm54 °FPartly sunny.15 mph58%29.86 "HgN/A
3:20 pm54 °FPartly sunny.16 mph58%29.83 "HgN/A
2:20 pm55 °FPartly sunny.18 mph55%29.83 "HgN/A
1:50 pm55 °FPartly sunny.17 mph51%29.83 "HgN/A
12:50 pm54 °FPassing clouds.21 mph54%29.83 "HgN/A
12:20 pm54 °FPassing clouds.18 mph54%29.83 "HgN/A
11:50 am52 °FPassing clouds.15 mph58%29.83 "HgN/A
11:20 am54 °FPassing clouds.18 mph54%29.83 "HgN/A
10:50 am52 °FPassing clouds.16 mph58%29.86 "HgN/A
10:20 am50 °FPassing clouds.15 mph62%29.86 "HgN/A
9:50 am50 °FSunny.14 mph58%29.86 "Hg10 mi
9:20 am48 °FSunny.12 mph62%29.86 "Hg10 mi
8:50 am46 °FSunny.15 mph66%29.83 "Hg10 mi
8:20 am45 °FSunny.13 mph71%29.83 "Hg10 mi
7:50 am45 °FSunny.15 mph71%29.83 "Hg10 mi
7:20 am43 °FSunny.13 mph76%29.83 "Hg10 mi
6:50 am45 °FClear.13 mph76%29.83 "Hg10 mi
6:20 am45 °FClear.12 mph76%29.83 "Hg10 mi
Weather by CustomWeather, © 2020

See weather overview